Wind_Speed
42 42 43 43 43 43 44 45 41 35 28 25 27 27 25 24 23 25 25 24 25 25 25 24 24 23 23 22 21 20 19 18 17 16 16 16 16 16 17 19 20 22 23
41 41 41 41 42 43 45 43 38 32 28 25 22 21 20 22 24 24 24 25 26 25 24 24 24 24 23 22 22 21 20 20 18 17 17 17 17 17 18 19 20 21 22
35 37 39 40 42 43 41 39 35 32 29 26 22 21 20 21 22 21 21 23 24 25 25 24 24 24 24 23 23 22 22 21 20 19 18 18 18 19 19 19 20 21 22
33 36 38 39 40 40 38 36 35 33 31 26 24 23 21 22 21 21 22 22 22 24 25 25 26 25 25 26 25 25 23 23 23 21 20 19 18 19 21 21 21 20 21
33 35 37 38 40 40 40 38 37 34 33 30 28 27 26 25 25 25 24 24 24 25 26 27 28 28 28 28 29 28 26 25 25 24 22 21 20 19 19 21 22 21 20
32 35 38 40 42 43 43 43 41 39 37 35 34 33 32 31 31 29 28 27 28 28 29 29 29 30 30 31 31 31 30 29 27 26 25 23 22 21 20 20 22 22 21
30 34 38 41 44 46 47 47 46 45 44 42 41 40 39 38 37 36 36 35 34 33 33 34 33 33 33 33 33 33 33 32 30 29 27 26 25 24 22 21 21 22 22
34 38 41 44 46 48 49 50 50 50 49 48 48 47 46 45 44 43 42 42 42 41 40 40 38 37 37 37 37 36 36 35 34 32 30 29 27 26 25 24 22 21 22
42 46 48 50 52 53 54 55 55 54 54 54 53 52 52 51 50 49 48 48 47 47 46 46 45 43 42 42 41 40 39 39 37 35 33 31 30 29 27 26 24 22 21
48 51 53 55 57 59 61 61 62 61 60 59 58 58 57 57 56 55 55 54 53 52 52 51 51 50 48 47 46 44 43 42 40 38 36 34 32 31 30 28 26 23 22
51 53 56 58 60 62 64 66 67 67 66 65 64 64 63 62 61 61 60 59 58 58 57 56 56 55 54 52 50 49 47 45 43 41 39 36 34 33 32 30 28 25 23
56 58 60 62 64 66 68 69 70 70 69 68 67 65 64 63 62 62 63 63 63 63 62 62 61 59 58 57 55 53 51 49 47 45 43 40 37 35 33 31 29 27 24
59 61 63 65 67 68 68 68 67 66 65 64 62 60 57 55 54 55 56 58 61 63 65 66 65 65 63 62 59 58 55 53 51 48 46 43 40 37 35 33 31 29 26
62 64 66 67 67 65 64 62 60 59 58 56 54 51 48 46 44 43 44 46 50 54 60 64 67 68 68 67 64 62 59 56 54 51 48 46 43 40 37 35 32 30 27
64 65 65 64 62 59 58 56 55 53 53 51 50 48 46 44 42 40 39 39 40 43 47 51 57 63 67 68 68 66 64 60 57 53 50 48 45 42 39 36 34 31 29
62 61 60 58 56 54 54 53 53 53 53 52 51 50 48 46 43 41 39 38 38 39 40 42 44 49 55 61 65 66 66 63 60 56 53 50 47 45 41 39 36 33 30
59 56 54 53 52 53 54 55 55 55 55 55 54 53 51 49 47 45 42 41 40 40 39 38 38 40 43 47 52 58 62 63 61 58 55 52 49 46 43 40 37 34 31
53 51 51 52 54 56 57 58 58 57 57 56 55 54 52 50 49 47 45 43 40 38 38 38 37 36 37 40 42 46 52 57 59 59 57 54 51 48 44 41 38 35 32
51 52 53 55 57 58 59 58 57 56 56 55 54 52 51 50 49 47 45 43 42 40 39 38 37 37 36 36 37 39 43 48 53 56 56 55 53 50 46 42 38 35 32
51 53 55 56 58 58 58 57 55 54 53 51 50 50 49 48 47 46 45 43 42 41 39 38 37 37 36 36 36 35 37 41 47 51 54 54 53 51 47 44 40 35 32
52 54 56 57 58 57 56 55 54 52 51 48 46 44 43 43 43 43 43 43 42 41 39 39 38 37 36 35 34 34 33 36 40 46 51 52 52 51 48 45 41 37 33
52 54 55 56 56 56 55 53 51 48 46 44 41 39 37 37 38 38 39 40 39 39 38 38 37 36 35 34 33 32 31 32 36 41 47 49 49 48 48 45 42 38 34
52 54 56 56 55 54 52 51 47 45 42 38 35 32 30 29 30 31 33 35 35 35 35 35 34 33 33 32 32 30 29 30 33 39 45 47 46 47 47 45 41 38 33
51 54 56 56 54 52 50 48 46 42 38 34 30 27 24 23 22 23 25 27 28 29 29 30 30 30 30 30 30 29 29 29 33 40 44 46 46 46 45 43 41 38 33
50 53 55 54 53 51 48 45 43 39 35 31 26 22 18 16 15 15 17 19 21 24 25 25 25 26 27 27 27 27 28 30 34 41 46 47 48 47 45 42 40 36 32
50 53 54 53 52 50 46 44 41 37 34 30 25 19 14 9 6 7 9 13 16 19 21 22 23 23 24 25 25 25 27 30 34 43 47 47 49 47 44 40 36 33 30
Wind_Direction
283 287 291 297 301 305 305 308 308 305 298 288 274 266 259 258 260 266 266 270 273 275 274 271 269 268 265 260 254 253 255 256 259 265 272 276 281 287 292 294 292 288 281
284 288 293 297 300 302 304 308 312 309 305 295 288 275 272 265 268 266 264 268 269 270 270 267 264 263 260 255 251 252 255 256 258 263 270 277 282 286 291 295 295 292 287
286 289 292 295 297 301 305 308 309 309 307 303 292 291 285 285 281 276 271 268 267 266 265 262 261 259 256 252 250 252 255 257 259 261 266 272 280 287 292 295 296 295 291
282 286 288 291 295 299 303 305 307 306 305 302 296 293 290 288 287 282 279 271 268 267 264 261 259 256 253 251 250 251 254 257 260 262 265 269 274 282 290 295 297 297 293
276 281 285 288 292 296 301 303 304 303 302 300 298 294 290 287 285 283 280 274 271 267 262 259 258 256 253 251 250 251 253 255 259 263 267 271 274 278 284 292 297 299 295
274 281 286 289 293 297 300 302 303 303 301 299 296 292 288 284 281 278 275 273 269 264 261 259 257 256 254 253 253 253 254 255 257 261 265 271 275 278 282 287 294 298 297
289 290 292 294 296 298 300 301 302 301 300 297 294 290 286 282 278 275 272 269 266 262 259 257 255 255 254 254 254 255 255 256 257 260 263 267 273 278 281 285 289 294 295
300 298 297 296 297 298 299 299 299 298 296 294 291 288 284 281 278 274 271 268 265 262 259 255 253 252 252 252 252 253 255 256 257 259 262 265 269 274 279 282 286 289 291
305 304 303 302 301 300 299 298 296 294 292 290 287 284 282 279 276 273 270 267 264 262 260 257 254 252 250 250 250 251 253 254 256 258 260 263 266 270 276 280 282 285 287
309 307 306 305 304 302 301 299 297 295 292 288 285 282 279 276 274 271 269 266 264 261 259 257 254 252 251 249 249 250 251 252 254 256 259 261 263 267 271 276 279 281 282
310 309 308 307 305 304 302 300 299 297 294 291 288 284 280 276 272 269 266 264 262 259 257 256 254 253 252 250 249 249 250 250 252 254 256 259 261 263 267 272 275 277 279
313 312 310 309 307 305 303 302 300 298 297 294 292 288 285 280 275 271 266 262 259 257 255 254 253 252 251 251 249 249 248 249 250 251 253 255 258 260 262 266 269 272 275
314 312 311 309 307 306 304 303 301 300 299 297 295 293 290 285 280 275 269 264 259 255 253 251 251 250 250 249 249 248 247 247 247 248 249 251 254 256 257 260 263 266 269
314 313 311 309 307 306 304 303 301 301 300 298 297 295 293 289 284 278 271 265 259 255 251 249 248 247 247 247 247 246 246 246 246 246 246 247 249 251 253 256 257 260 264
314 312 310 309 307 306 305 303 302 300 298 296 294 292 290 288 285 279 273 268 261 255 252 250 247 245 244 244 244 245 245 244 243 243 244 244 244 247 249 251 252 255 259
314 313 312 311 309 308 306 304 301 298 295 293 290 288 285 283 280 276 273 268 263 259 256 252 250 247 245 243 242 241 242 242 241 241 241 241 241 242 244 246 247 251 254
317 316 315 313 311 308 306 303 301 297 294 292 289 285 282 278 275 272 270 268 264 260 257 255 253 250 247 244 242 240 239 239 238 238 238 238 238 238 239 241 243 246 249
320 319 318 316 313 310 307 304 301 298 294 291 288 284 280 276 272 269 268 265 262 259 257 253 251 250 249 247 244 242 239 236 235 234 234 234 234 235 235 237 238 241 244
324 323 321 318 316 312 309 306 303 300 296 292 288 283 279 275 271 267 264 262 259 256 255 254 251 249 248 248 247 245 241 236 233 230 229 230 230 231 232 232 234 237 240
326 325 323 321 319 316 313 311 308 304 300 295 290 285 279 274 269 265 261 259 256 254 253 251 250 248 247 247 246 247 243 237 231 227 225 225 226 226 227 228 230 232 235
329 328 326 325 323 321 319 317 313 308 304 298 294 288 281 274 268 263 259 256 253 251 250 248 248 246 245 243 243 243 243 237 229 223 219 219 221 222 223 224 226 228 230
333 332 331 330 328 326 324 323 320 315 311 305 298 292 284 275 267 262 257 253 251 248 247 245 244 242 239 238 239 239 238 234 226 218 213 212 214 215 218 220 221 224 227
336 336 336 336 334 332 331 329 327 324 320 314 306 299 289 279 270 262 255 249 246 244 243 240 237 236 234 233 233 233 232 230 222 211 206 203 205 208 212 214 217 219 223
340 341 341 341 340 339 338 337 335 333 330 325 317 307 297 285 272 261 251 243 238 235 234 231 230 229 228 228 228 229 231 227 218 205 198 196 199 200 203 207 210 213 217
345 346 346 347 347 347 347 347 346 344 342 339 334 324 310 295 276 259 243 232 225 221 220 221 221 220 221 222 224 228 228 221 212 200 191 190 192 193 197 200 205 208 211
349 350 351 352 353 354 355 355 355 354 354 353 351 346 336 321 291 250 227 215 209 209 210 211 212 215 217 218 220 223 221 213 206 197 190 186 186 188 192 194 198 202 205
Height
5862 5860 5856 5853 5848 5843 5838 5833 5826 5822 5819 5816 5815 5815 5816 5818 5820 5820 5819 5819 5820 5819 5819 5819 5819 5819 5819 5819 5820 5820 5821 5822 5822 5822 5822 5821 5821 5820 5818 5816 5815 5813 5812
5856 5853 5850 5846 5842 5838 5835 5831 5825 5821 5818 5816 5815 5813 5812 5812 5813 5813 5813 5813 5813 5813 5812 5812 5812 5813 5813 5814 5815 5815 5816 5816 5817 5817 5817 5816 5816 5815 5813 5811 5809 5807 5805
5849 5847 5844 5840 5836 5833 5829 5825 5822 5817 5815 5813 5811 5809 5808 5807 5807 5807 5807 5806 5806 5805 5805 5805 5806 5806 5807 5808 5809 5809 5810 5811 5811 5811 5812 5811 5811 5809 5808 5806 5803 5801 5799
5843 5841 5838 5835 5831 5827 5823 5819 5816 5813 5810 5807 5805 5804 5803 5802 5801 5800 5799 5799 5798 5798 5798 5798 5799 5799 5800 5801 5802 5803 5803 5804 5805 5805 5805 5806 5805 5805 5802 5800 5798 5795 5793
5836 5834 5830 5827 5823 5819 5815 5812 5809 5806 5803 5801 5799 5798 5797 5795 5794 5793 5793 5792 5792 5791 5791 5791 5791 5792 5792 5793 5794 5795 5796 5797 5798 5798 5798 5798 5799 5799 5798 5795 5792 5790 5787
5829 5826 5822 5818 5814 5809 5805 5802 5799 5796 5794 5792 5790 5789 5788 5787 5786 5785 5784 5784 5784 5783 5783 5783 5784 5784 5784 5785 5785 5787 5788 5789 5790 5791 5791 5791 5791 5792 5792 5790 5787 5784 5782
5820 5817 5814 5809 5804 5799 5795 5791 5787 5785 5783 5781 5780 5778 5777 5776 5775 5774 5774 5773 5773 5773 5774 5774 5775 5775 5775 5775 5776 5777 5779 5780 5781 5782 5783 5784 5784 5785 5785 5785 5782 5779 5777
5812 5808 5804 5799 5794 5789 5784 5780 5776 5773 5770 5768 5766 5764 5763 5762 5761 5761 5761 5761 5761 5761 5761 5762 5763 5764 5765 5766 5766 5767 5769 5770 5772 5774 5775 5776 5776 5777 5777 5778 5777 5775 5772
5801 5795 5790 5784 5779 5775 5770 5766 5762 5759 5756 5753 5750 5748 5746 5745 5745 5745 5745 5745 5746 5746 5747 5748 5749 5751 5752 5754 5755 5757 5758 5760 5762 5764 5766 5767 5768 5769 5770 5770 5770 5769 5767
5789 5783 5777 5770 5764 5758 5752 5747 5742 5739 5736 5734 5731 5729 5727 5725 5725 5725 5725 5726 5727 5729 5730 5732 5733 5735 5737 5740 5742 5745 5747 5749 5751 5754 5756 5758 5759 5761 5762 5763 5763 5763 5762
5780 5773 5765 5758 5750 5742 5735 5727 5721 5716 5712 5709 5707 5705 5703 5702 5702 5702 5703 5704 5706 5709 5711 5713 5716 5718 5721 5724 5727 5730 5733 5737 5740 5742 5745 5748 5750 5752 5754 5755 5756 5756 5756
5767 5759 5751 5743 5735 5726 5717 5709 5701 5694 5689 5684 5681 5679 5676 5675 5675 5675 5677 5679 5682 5685 5688 5692 5696 5699 5703 5706 5710 5715 5719 5723 5727 5730 5734 5737 5740 5743 5745 5747 5748 5749 5749
5755 5746 5737 5728 5719 5709 5700 5692 5683 5675 5669 5663 5659 5655 5652 5650 5649 5649 5649 5652 5655 5659 5663 5668 5672 5677 5682 5687 5692 5697 5702 5708 5712 5717 5721 5726 5729 5733 5735 5738 5740 5741 5742
5742 5732 5723 5713 5703 5694 5685 5676 5668 5660 5653 5647 5642 5638 5634 5631 5630 5628 5628 5628 5630 5633 5637 5642 5647 5653 5659 5665 5671 5678 5684 5691 5697 5703 5708 5713 5718 5722 5726 5729 5731 5733 5734
5729 5718 5708 5698 5688 5679 5670 5662 5654 5646 5639 5632 5627 5623 5620 5617 5615 5613 5612 5612 5612 5614 5616 5619 5624 5629 5635 5642 5649 5657 5665 5672 5680 5687 5694 5700 5705 5710 5715 5719 5722 5725 5727
5716 5705 5694 5683 5674 5665 5656 5648 5640 5632 5625 5618 5613 5608 5604 5602 5600 5599 5598 5598 5599 5599 5601 5603 5606 5609 5614 5620 5627 5635 5644 5653 5662 5671 5679 5686 5692 5698 5704 5709 5713 5716 5719
5700 5690 5680 5670 5660 5650 5641 5632 5624 5616 5608 5602 5596 5591 5588 5585 5584 5583 5583 5584 5584 5586 5587 5589 5592 5595 5598 5603 5608 5615 5624 5634 5644 5653 5662 5671 5679 5686 5692 5698 5703 5707 5710
5687 5677 5667 5657 5646 5636 5625 5615 5606 5597 5589 5582 5577 5572 5569 5567 5566 5566 5567 5568 5570 5571 5573 5576 5579 5582 5585 5589 5593 5599 5606 5615 5625 5635 5646 5656 5664 5673 5680 5687 5693 5698 5702
5675 5664 5653 5642 5631 5619 5607 5596 5586 5577 5569 5562 5556 5552 5548 5547 5547 5547 5549 5551 5554 5556 5559 5563 5566 5570 5573 5577 5581 5586 5592 5599 5608 5618 5629 5640 5650 5660 5668 5676 5682 5688 5693
5664 5653 5641 5628 5615 5602 5590 5578 5567 5557 5549 5541 5535 5531 5528 5526 5527 5528 5531 5534 5537 5541 5545 5549 5553 5557 5561 5565 5569 5574 5579 5585 5593 5603 5614 5625 5636 5646 5656 5664 5672 5679 5684
5655 5642 5629 5615 5601 5587 5574 5562 5550 5539 5530 5522 5516 5511 5508 5507 5507 5509 5513 5517 5521 5526 5530 5535 5540 5544 5549 5553 5558 5562 5567 5572 5579 5588 5599 5611 5622 5633 5644 5653 5662 5669 5676
5646 5632 5618 5604 5589 5573 5560 5547 5534 5523 5513 5504 5498 5494 5490 5489 5490 5492 5496 5500 5505 5511 5516 5521 5527 5532 5537 5542 5547 5552 5557 5562 5568 5576 5587 5598 5610 5622 5633 5643 5652 5660 5667
5637 5623 5609 5594 5579 5563 5548 5535 5522 5510 5500 5491 5484 5479 5476 5475 5476 5478 5481 5486 5491 5498 5503 5509 5515 5521 5526 5531 5537 5542 5547 5552 5558 5566 5576 5588 5600 5611 5622 5633 5643 5651 5659
5630 5616 5601 5586 5571 5555 5540 5525 5512 5501 5490 5481 5474 5469 5466 5465 5465 5467 5470 5474 5480 5487 5493 5499 5505 5511 5517 5522 5528 5533 5538 5543 5549 5557 5566 5578 5590 5601 5613 5624 5634 5643 5651
5624 5610 5594 5579 5564 5549 5534 5520 5507 5495 5485 5476 5468 5463 5460 5458 5458 5460 5463 5467 5472 5479 5485 5491 5497 5504 5509 5515 5520 5525 5529 5535 5540 5548 5557 5569 5581 5593 5605 5617 5627 5637 5645
5619 5606 5591 5575 5560 5546 5532 5518 5506 5494 5484 5475 5467 5461 5458 5456 5456 5458 5461 5464 5469 5474 5480 5486 5492 5498 5503 5508 5513 5517 5522 5526 5532 5540 5550 5562 5574 5587 5600 5611 5622 5631 5639